Hourly Data Report for October 30, 2013

All times are specified in Local Standard Time (LST). Add 1 hour to adjust for Daylight Saving Time where and when it is observed.

FREDERICTON
NEW BRUNSWICK

45°52'08.000" N
66°32'14.000" W
20.70 m
8101505
71700
YFC

Download Data

Hourly Data (October 2013)
Hourly Data Report for October 30, 2013
Temp Definition
°C
Dew Point Temp Definition
°C
Rel Hum Definition
%
Wind Dir Definition
10's deg

Wind Spd Definition
km/h
Visibility Definition
km
Stn Press Definition
kPa
Hmdx Definition


Wind Chill Definition


Weather Definition


TIME
00:00 Legend Double Dagger -4.9 -5.6 95 21 8 16.1 102.51   -8 LegendNANA
01:00 Legend Double Dagger -5.4 -5.9 96 18 5 16.1 102.51   -8 LegendNANA
02:00 Legend Double Dagger -5.7 -6.2 96 20 8 16.1 102.46   -9 LegendNANA
03:00 Legend Double Dagger -6.5 -7.2 95 21 8 16.1 102.39   -10 LegendNANA
04:00 Legend Double Dagger -6.9 -7.4 96 21 4 16.1 102.38   -9 LegendNANA
05:00 Legend Double Dagger -7.2 -7.6 97   0 16.1 102.33     LegendNANA
06:00 Legend Double Dagger -5.8 -5.9 99 32 5 0.2 102.35   -8 LegendNANA
07:00 Legend Double Dagger -6.0 -6.4 97 21 5 0.2 102.30   -8 LegendNANA
08:00 Legend Double Dagger -5.0 -5.4 97 22 5 0.8 102.29   -7 LegendNANA
09:00 Legend Double Dagger -4.0 -4.3 98 LegendMM 4 2.0 102.28   -6 LegendNANA
10:00 Legend Double Dagger -1.9 -2.0 99 20 5 16.1 102.19   -4 LegendNANA
11:00 Legend Double Dagger 2.3 -3.0 68 17 8 16.1 102.10     LegendNANA
12:00 Legend Double Dagger 3.7 -7.8 43 27 15 16.1 102.04     LegendNANA
13:00 Legend Double Dagger 4.6 -7.2 42 24 11 16.1 101.91     LegendNANA
14:00 Legend Double Dagger 5.9 -8.5 35 26 9 16.1 101.80     LegendNANA
15:00 Legend Double Dagger 6.4 -10.2 30 24 13 16.1 101.76     LegendNANA
16:00 Legend Double Dagger 5.9 -11.4 28 27 11 16.1 101.75     LegendNANA
17:00 Legend Double Dagger 4.0 -10.5 34 29 8 16.1 101.76     LegendNANA
18:00 Legend Double Dagger -0.9 -6.9 64 22 5 16.1 101.79   -3 LegendNANA
19:00 Legend Double Dagger -2.1 -7.1 69 19 8 16.1 101.82   -5 LegendNANA
20:00 Legend Double Dagger -2.3 -6.6 72 19 9 16.1 101.82   -6 LegendNANA
21:00 Legend Double Dagger -2.4 -6.9 71 23 5 16.1 101.82   -4 LegendNANA
22:00 Legend Double Dagger -2.8 -6.8 74 22 9 16.1 101.87   -6 LegendNANA
23:00 Legend Double Dagger -3.5 -6.6 80 22 8 16.1 101.88   -7 LegendNANA

Notes on Data Quality.

Legend

  • E = Estimated
  • M = Missing
  • NA = Not Available
  • ‡ = Partner data that is not subject to review by the National Climate Archives
Date modified: